EW2875 Weather Reports


Display with metric or nautical units.
time (UTC)temp
F
wind
direction
speed
MPH
gust
MPH
rain 1hr
in
rain 24hr
in
rain mn
in
humidity
%
barometer
mb
20260906220004 60 192 12.0 19.0 0.00 0.14 0.14 92 1004.3
20260906214504 60 194 13.0 21.0 0.00 0.14 0.14 91 1004.3
20260906213004 60 190 16.0 24.0 0.00 0.14 0.14 91 1004.4
20260906211504 60 184 19.0 27.0 0.00 0.14 0.14 91 1004.1
20260906210004 60 182 15.0 22.0 0.00 0.14 0.14 90 1004.1
20260906204504 60 182 17.0 26.0 0.00 0.14 0.14 90 1004.1
20260906203025 60 184 16.0 23.0 0.00 0.14 0.14 91 1004.2
20260906201504 60 181 19.0 30.0 0.00 0.14 0.14 90 1004.2
20260906200004 60 182 24.0 30.0 0.00 0.14 0.14 90 1004.2
20260906194504 60 182 21.0 30.0 0.00 0.14 0.14 89 1004.1
20260906193004 60 182 18.0 29.0 0.00 0.14 0.14 89 1004.3
20260906191504 60 180 19.0 26.0 0.00 0.14 0.14 89 1004.3
20260906190004 60 175 19.0 25.0 0.00 0.14 0.14 89 1004.0
20260906184504 61 174 22.0 31.0 0.00 0.14 0.14 88 1004.3
20260906183025 61 172 17.0 25.0 0.00 0.14 0.14 87 1004.5
20260906181503 62 177 15.0 25.0 0.00 0.14 0.14 85 1004.9
20260906180004 63 180 18.0 26.0 0.00 0.14 0.14 85 1004.6
20260906174504 64 187 20.0 31.0 0.00 0.14 0.14 83 1004.5
20260906173004 64 181 17.0 29.0 0.00 0.14 0.14 83 1005.1
20260906171504 64 182 20.0 33.0 0.00 0.14 0.14 85 1004.8
20260906170004 63 189 18.0 29.0 0.00 0.14 0.14 85 1005.1
20260906164525 63 194 17.0 27.0 0.00 0.14 0.14 86 1005.3
20260906163004 63 194 19.0 31.0 0.00 0.14 0.14 85 1005.4
20260906161503 63 197 18.0 31.0 0.00 0.14 0.14 86 1005.6
20260906160004 63 199 14.0 31.0 0.00 0.14 0.14 87 1006.0
20260906154504 63 194 21.0 33.0 0.00 0.14 0.14 87 1006.3
20260906153004 63 186 16.0 30.0 0.00 0.14 0.14 88 1006.0
20260906151504 64 186 6.0 19.0 0.00 0.14 0.14 89 1006.3
20260906150004 63 186 4.0 13.0 0.00 0.14 0.14 91 1006.5
20260906144504 62 175 9.0 20.0 0.00 0.14 0.14 91 1006.4
20260906143004 62 169 17.0 27.0 0.00 0.14 0.14 92 1006.1
20260906141504 62 170 12.0 20.0 0.00 0.14 0.14 93 1006.3
20260906140004 61 162 12.0 25.0 0.00 0.14 0.14 93 1006.7
20260906134503 61 163 19.0 30.0 0.00 0.14 0.14 93 1006.8
20260906133003 60 163 11.0 19.0 0.00 0.14 0.14 94 1007.2
20260906131503 60 163 14.0 22.0 0.00 0.14 0.14 94 1007.2
20260906130004 60 160 13.0 21.0 0.00 0.14 0.14 94 1007.5
20260906124503 59 158 17.0 23.0 0.00 0.14 0.14 94 1007.7
20260906123004 59 158 18.0 31.0 0.00 0.14 0.14 94 1007.9
20260906121503 59 158 18.0 26.0 0.00 0.14 0.14 93 1008.4
20260906120004 59 158 20.0 27.0 0.00 0.14 0.14 94 1008.7
20260906114524 58 154 18.0 26.0 0.00 0.14 0.14 94 1009.0
20260906113003 58 155 20.0 32.0 0.00 0.14 0.14 93 1009.0
20260906111504 58 157 22.0 30.0 0.00 0.14 0.14 93 1009.2
20260906110024 58 161 23.0 33.0 0.00 0.14 0.14 93 1009.3
20260906104503 58 168 25.0 32.0 0.00 0.14 0.14 93 1009.3
20260906103003 58 170 26.0 34.0 0.00 0.14 0.14 94 1009.7
20260906101503 58 170 28.0 35.0 0.00 0.14 0.14 94 1009.5
20260906100004 57 167 23.0 31.0 0.00 0.14 0.14 95 1009.7
20260906094504 57 164 22.0 29.0 0.00 0.14 0.14 95 1010.0
20260906093003 56 158 17.0 23.0 0.00 0.14 0.14 96 1010.4
20260906091503 56 161 18.0 26.0 0.00 0.14 0.14 96 1010.6
20260906090024 55 161 18.0 25.0 0.00 0.14 0.14 96 1010.8
20260906084503 55 162 18.0 26.0 0.00 0.14 0.14 96 1010.9
20260906083003 55 163 18.0 23.0 0.00 0.14 0.14 96 1010.9
20260906081524 54 160 16.0 22.0 0.00 0.14 0.14 96 1011.2
20260906080003 54 156 14.0 20.0 0.00 0.14 0.14 96 1011.5
20260906074503 54 156 15.0 21.0 0.01 0.14 0.14 97 1011.6
20260906073003 54 155 13.0 19.0 0.01 0.14 0.14 96 1011.9
20260906071503 53 152 11.0 20.0 0.01 0.14 0.14 97 1011.8
20260906070003 53 153 9.0 15.0 0.01 0.14 0.14 96 1012.2
20260906064518 53 154 12.0 18.0 0.00 0.13 0.13 96 1012.4
20260906063003 52 155 12.0 19.0 0.01 0.13 0.13 96 1012.5
20260906061524 52 162 15.0 20.0 0.01 0.13 0.13 96 1012.4
20260906060024 52 155 12.0 20.0 0.02 0.13 0.13 96 1012.5
20260906054524 52 145 11.0 16.0 0.04 0.13 0.13 97 1012.6
20260906053003 52 136 9.0 12.0 0.05 0.12 0.12 96 1012.5
20260906051524 52 140 5.0 11.0 0.08 0.12 0.12 96 1013.4
20260906050003 52 151 7.0 11.0 0.07 0.11 0.11 96 1013.6
20260906044503 52 162 9.0 13.0 0.06 0.09 0.09 96 1014.1
20260906043003 52 171 11.0 15.0 0.05 0.07 0.07 95 1014.6
20260906041524 52 169 11.0 14.0 0.03 0.04 0.04 95 1015.2
20260906040003 52 167 8.0 12.0 0.03 0.04 0.04 94 1015.1
20260906034503 52 174 11.0 16.0 0.02 0.03 0.03 93 1015.2
20260906033024 52 186 11.0 18.0 0.02 0.02 0.02 92 1015.3
20260906031503 52 185 16.0 22.0 0.01 0.01 0.01 92 1015.7
20260906030024 52 179 13.0 20.0 0.01 0.01 0.01 92 1015.6
20260906024503 52 176 13.0 18.0 0.01 0.01 0.01 91 1015.7
20260906023003 52 171 9.0 15.0 0.00 0.00 0.00 91 1016.2
20260906021503 52 171 13.0 16.0 0.00 0.00 0.00 90 1016.5
20260906020003 52 168 10.0 13.0 0.00 0.00 0.00 91 1016.8
20260906014505 52 170 8.0 11.0 0.00 0.00 0.00 91 1017.0
20260906013005 51 172 8.0 11.0 0.00 0.00 0.00 90 1017.3
20260906011505 52 175 9.0 11.0 0.00 0.00 0.00 90 1017.3
20260906010005 52 178 9.0 11.0 0.00 0.00 0.00 90 1017.7
20260906004526 52 175 10.0 12.0 0.00 0.00 0.00 91 1017.8
20260906003005 52 172 9.0 13.0 0.00 0.00 0.00 90 1017.6
20260906001505 52 170 10.0 12.0 0.00 0.01 0.00 90 1017.8
20260906000005 52 172 11.0 12.0 0.00 0.01 0.00 91 1018.0
20260905234505 51 176 9.0 11.0 0.00 0.01 0.00 91 1018.3
20260905233005 52 186 8.0 11.0 0.00 0.01 0.00 90 1018.7
20260905231505 52 205 7.0 9.0 0.00 0.01 0.00 91 1018.8
20260905230005 52 208 6.0 10.0 0.00 0.01 0.00 91 1018.9
20260905224505 51 212 4.0 7.0 0.00 0.01 0.01 92 1018.7
20260905223005 51 200 5.0 8.0 0.00 0.01 0.01 91 1018.9
20260905221504 52 197 8.0 10.0 0.00 0.01 0.01 91 1019.0